SCP
0 0 0 0 0 0 0 0 0 0 0 0 0 0 0 0 1 1 1 1 1 1 0 0 0 0 1 0 1 2 1 1 1 1 0 0 -0 0 0 0 0 -0 0 0
0 0 0 0 0 0 0 0 0 0 0 0 0 0 0 0 0 1 1 0 0 0 0 0 0 0 0 0 0 1 1 1 1 1 1 0 0 -0 -0 -0 0 0 0 0
0 0 0 0 0 0 0 0 0 0 0 0 0 0 0 0 0 0 0 0 0 0 0 0 0 0 0 0 0 0 0 0 0 0 0 0 0 1 0 0 0 0 0 0
0 0 0 0 0 0 0 0 0 0 0 0 0 0 0 0 0 0 0 0 0 0 0 0 0 0 0 0 0 0 0 0 0 0 0 0 0 1 1 1 1 1 1 0
0 0 0 0 0 0 0 0 0 0 0 0 0 0 0 0 0 0 0 0 0 0 0 0 0 0 0 0 0 0 0 0 0 0 0 0 0 0 0 0 0 0 1 1
0 0 0 0 0 0 0 0 0 0 0 0 0 0 0 0 0 0 0 0 0 0 0 0 0 0 0 0 0 0 0 0 0 0 0 0 0 0 0 0 0 0 0 0
0 0 0 0 0 0 0 0 0 0 0 0 0 0 0 0 0 0 0 0 0 0 0 0 0 0 0 0 0 0 0 0 0 0 0 0 0 1 0 0 1 1 0 0
0 0 0 0 0 0 0 0 0 0 0 0 0 0 0 0 0 0 0 0 0 0 0 0 0 0 0 0 0 0 0 0 0 0 0 0 1 0 0 1 1 1 1 1
0 0 0 0 0 0 0 0 0 0 0 0 0 0 0 0 0 0 0 0 0 0 0 0 0 0 0 0 0 0 0 0 0 0 0 0 0 0 0 1 0 0 0 0
0 0 0 0 0 0 0 0 0 0 0 0 0 0 0 0 0 0 0 0 0 0 0 0 0 0 0 0 0 0 0 0 0 0 0 0 0 0 0 0 0 0 0 0
0 0 0 0 0 0 0 0 0 0 0 0 0 0 0 0 0 0 0 0 0 0 0 0 0 0 0 0 0 0 0 0 0 0 0 0 0 0 0 0 0 0 0 0
0 0 0 0 0 0 0 0 0 0 0 0 0 0 0 0 0 0 0 0 0 0 0 0 0 0 0 0 0 0 0 0 0 0 0 0 0 0 0 0 0 0 0 0
0 0 0 0 0 0 0 0 0 0 0 0 0 0 0 0 0 0 0 0 0 0 0 0 0 0 0 0 0 0 0 0 0 0 0 0 0 0 0 0 0 0 0 0
0 0 0 0 0 0 0 0 0 0 0 0 0 0 0 0 0 0 0 0 0 0 0 0 0 0 0 0 0 0 0 0 0 0 0 0 0 0 0 0 0 0 0 0
0 0 0 0 0 0 0 0 0 0 0 0 0 0 0 0 0 0 0 0 0 0 0 0 0 0 0 0 0 0 0 0 0 0 0 0 0 0 0 0 0 0 0 0
0 0 0 0 0 0 0 0 0 0 0 0 0 0 0 0 0 0 0 0 0 0 0 0 0 0 0 0 -0 0 0 0 0 0 0 0 0 0 0 0 0 0 0 0
0 0 0 0 0 0 0 0 0 0 0 0 0 0 0 0 0 0 0 0 0 0 0 0 -0 -0 0 -0 -0 0 0 0 0 0 0 0 0 0 0 0 0 0 0 0
0 0 0 0 0 0 0 0 0 0 0 0 0 0 0 0 0 0 0 0 0 0 0 -0 -0 -0 0 0 0 0 0 0 0 0 0 0 0 0 0 0 0 0 0 0
0 0 0 0 0 0 0 0 0 0 0 0 0 0 0 0 -0 -0 0 0 0 0 0 0 -0 0 -0 -0 0 0 0 0 0 0 0 0 0 0 0 0 0 0 0 0
0 0 0 0 0 0 0 0 0 0 0 0 0 0 -0 -0 -0 -0 -0 0 -0 -0 0 0 0 0 0 0 0 -0 -0 -0 0 0 0 0 0 0 0 0 0 0 0 0
0 0 0 0 0 0 0 0 0 0 0 0 0 -0 0 0 0 0 -0 -0 -0 -0 -0 -0 0 0 -0 -0 0 0 0 -0 0 0 0 0 0 -0 0 0 0 0 0 0
0 0 -0 0 0 0 0 0 0 0 0 0 0 0 0 0 0 -0 0 -0 -0 0 0 0 0 0 -0 -0 -0 0 0 0 0 0 0 0 0 0 0 0 -0 -0 0 0
0 0 -0 0 0 0 0 0 0 0 0 -0 0 0 0 -0 -0 -0 0 0 0 0 0 0 0 0 0 0 0 0 0 0 0 -0 0 0 0 0 0 0 0 0 0 0
0 -0 0 0 0 0 0 0 0 0 0 0 0 0 0 0 0 0 0 0 0 0 0 0 0 0 0 0 -0 -0 -0 -0 -0 0 0 0 0 0 0 0 0 0 0 0
0 -0 0 0 0 0 0 0 0 0 0 0 0 -0 0 0 0 0 0 0 0 0 0 0 0 0 0 0 0 -0 -0 -0 -0 -0 -0 0 0 0 0 0 0 0 0 0
-0 -0 0 0 0 -0 -0 -0 0 0 0 0 0 -0 -0 -0 -0 -0 0 0 0 0 0 0 0 0 0 0 -0 -0 -0 -0 -0 -0 -0 -0 0 0 0 0 0 0 0 0
0 -0 0 0 0 0 -0 -0 -0 0 -0 -0 0 0 -0 0 0 0 0 0 -0 -0 -0 -0 -0 0 0 0 0 -0 -0 -0 -0 -0 -0 -0 0 -0 0 0 0 -0 0 -0
Wind_Speed_500mb
8 11 11 17 19 21 27 29 27 29 28 23 20 18 22 18 10 3 4 12 12 10 8 11 10 11 14 19 22 26 10 3 6 10 17 22 24 30 41 43 33 34 32 34
23 12 18 25 26 27 29 28 29 27 28 12 5 7 9 7 7 1 5 6 8 8 9 8 9 10 12 16 19 16 14 10 9 12 12 14 26 40 40 26 41 43 37 38
27 8 17 25 27 29 29 24 22 25 9 7 2 4 5 5 5 5 4 4 6 9 12 14 17 19 19 18 18 18 14 12 11 11 13 17 18 21 24 32 38 46 45 43
22 15 31 7 10 10 15 14 11 15 5 5 5 7 9 9 10 15 17 17 16 18 22 24 26 27 28 27 26 28 28 23 19 18 18 20 23 25 25 19 31 40 45 46
14 22 22 16 7 5 8 11 4 10 3 1 6 13 26 20 19 22 24 26 31 34 34 36 37 36 35 37 39 35 35 34 35 32 27 25 27 27 33 33 28 27 40 47
9 17 17 16 11 6 5 17 10 6 5 11 15 17 5 5 14 28 36 43 51 53 54 53 51 49 48 49 47 48 52 54 45 52 46 39 34 35 38 40 38 32 34 44
16 16 1 9 4 3 16 8 7 9 13 19 21 29 41 48 47 48 50 53 55 55 56 56 53 53 58 56 56 54 52 51 54 48 44 39 41 38 40 41 41 44 43 42
7 12 24 8 7 13 12 11 16 22 29 34 38 45 49 50 54 57 59 59 59 60 60 59 58 57 61 60 57 56 53 50 51 51 47 46 43 40 40 40 40 42 44 44
7 10 5 4 5 7 13 19 26 30 36 41 47 53 57 59 62 64 64 65 63 62 64 58 55 56 59 59 52 53 57 58 55 51 48 44 43 42 44 44 43 44 42 43
6 10 7 9 17 20 21 26 32 39 46 50 55 60 63 63 64 66 66 66 64 63 60 57 55 55 57 54 50 50 52 52 52 52 49 45 45 47 49 51 51 48 44 44
14 18 15 21 20 24 29 37 46 49 52 56 61 63 64 67 68 69 68 66 62 61 62 63 59 54 53 52 48 47 48 47 48 51 52 51 50 50 52 54 55 51 47 42
12 21 17 26 31 37 42 48 49 54 61 63 63 66 66 68 69 72 72 69 67 67 64 61 60 58 55 51 49 48 48 48 46 49 52 52 50 52 54 60 63 64 63 61
14 21 28 37 38 37 44 54 58 59 61 65 64 65 68 72 72 75 77 74 71 71 70 63 59 59 55 49 52 49 50 48 50 51 51 52 52 52 54 52 56 63 66 66
15 24 34 34 46 49 51 53 57 61 63 63 63 63 62 58 66 69 78 73 73 69 74 66 63 61 49 47 52 53 48 50 51 53 54 54 54 54 54 53 51 51 55 64
22 30 37 43 46 50 53 58 61 62 61 60 57 60 66 63 67 77 74 71 80 63 64 58 59 61 46 47 50 49 47 45 44 46 45 48 52 53 54 55 53 51 51 55
33 38 37 41 48 51 55 59 58 58 61 65 68 68 67 66 68 64 61 63 61 57 55 57 47 47 44 44 46 41 42 45 47 43 43 41 43 47 53 54 55 53 51 49
36 40 44 46 48 50 55 54 60 65 65 66 66 66 65 65 64 62 61 53 49 44 43 41 45 41 44 36 35 38 38 37 39 39 39 41 44 46 51 53 57 53 53 49
28 30 35 39 43 49 54 52 59 62 62 60 58 54 54 56 60 48 37 26 27 29 31 36 37 32 32 34 37 36 38 37 40 40 40 39 44 47 49 54 55 54 51 48
24 29 32 36 38 40 44 49 54 52 50 47 48 52 48 48 38 34 32 30 30 31 28 27 29 32 36 38 37 39 41 44 43 41 44 43 44 41 44 52 54 51 47 46
25 27 33 37 37 37 43 46 48 50 51 49 51 51 47 46 39 38 34 31 25 31 38 38 41 39 38 41 41 45 44 44 46 46 44 42 42 43 34 41 46 46 43 45
23 29 32 35 38 41 39 42 46 50 50 48 51 49 43 43 37 36 38 41 35 41 47 40 40 45 46 46 48 48 49 49 48 47 47 49 43 40 35 35 39 44 46 45
22 27 31 36 37 38 40 42 43 45 50 48 46 43 44 50 49 46 42 39 39 41 39 43 42 49 54 60 54 50 41 52 49 49 45 45 41 41 38 40 44 45 41 43
18 22 27 36 36 39 42 45 47 48 49 50 51 50 50 47 56 63 61 49 42 44 50 56 52 45 38 26 32 31 31 25 34 33 30 29 28 31 37 35 32 32 35 36
16 17 19 26 31 40 51 51 49 51 51 50 52 54 57 59 64 63 64 69 64 58 60 64 70 70 57 62 41 20 11 8 4 8 9 12 8 14 19 20 22 25 29 26
13 15 20 24 29 30 32 37 43 47 50 51 54 54 55 54 59 60 62 67 71 77 78 78 83 94 94 81 64 51 34 18 10 15 15 12 13 11 9 10 12 18 8 8
13 15 17 23 25 26 28 29 35 38 39 43 47 50 48 50 50 52 58 65 69 74 72 80 84 87 90 90 83 83 76 65 53 37 30 33 25 17 21 22 20 11 9 17
15 16 17 21 24 26 28 31 35 40 35 36 40 43 44 46 49 51 55 56 57 58 61 64 81 79 77 80 84 86 84 84 85 81 83 81 81 68 51 54 51 35 22 14
Wind_Direction_500mb
296 308 283 283 270 245 257 272 281 305 309 309 336 328 311 305 297 291 55 70 81 76 64 50 30 21 22 25 18 26 56 180 284 288 282 274 253 243 226 227 240 245 243 242
277 249 268 274 268 260 263 267 280 280 283 57 19 319 327 334 299 268 85 65 59 54 42 29 11 7 360 358 10 18 25 25 18 2 358 290 277 261 233 223 233 241 248 243
274 300 281 267 263 259 272 272 287 275 2 84 176 292 325 325 318 306 317 340 328 322 319 313 311 310 313 318 318 325 330 326 324 326 330 336 332 309 297 261 247 243 245 242
269 257 256 9 3 302 280 289 270 267 322 347 326 290 278 280 285 297 301 305 310 307 302 297 295 295 300 300 304 299 299 302 302 299 299 305 315 320 326 301 264 254 245 242
252 246 257 221 161 297 272 259 228 279 217 263 303 298 266 250 276 287 289 289 300 300 298 294 292 291 289 289 290 290 291 292 293 297 296 293 295 297 303 305 305 282 256 252
193 267 273 68 100 345 299 259 66 308 291 311 314 283 59 9 304 293 286 284 288 290 290 287 285 284 280 278 277 276 279 282 280 287 287 288 283 285 289 290 292 284 288 258
226 258 253 76 53 262 242 39 5 336 320 306 296 300 298 298 294 290 287 286 285 284 283 283 283 281 278 275 272 271 270 270 272 272 272 272 276 268 276 273 270 275 279 280
256 275 257 61 182 289 7 321 321 310 303 298 296 297 296 294 292 292 290 289 285 284 283 280 278 277 275 275 277 273 270 266 263 265 264 266 262 260 260 260 263 267 271 273
311 26 56 356 357 326 318 310 309 305 301 298 296 294 295 295 293 292 290 289 286 284 285 281 277 275 273 272 275 274 271 269 264 259 257 257 257 256 257 257 257 259 259 262
313 107 340 319 297 295 288 297 302 300 298 297 294 294 293 295 296 294 292 290 286 285 282 280 278 274 270 272 275 274 269 267 263 256 253 254 257 257 255 252 251 252 254 257
271 267 307 294 309 300 288 295 300 300 298 297 296 294 293 294 294 293 290 289 285 281 280 281 280 276 270 271 273 269 265 264 264 258 256 257 256 253 250 249 246 247 249 253
329 344 315 300 309 307 302 299 300 301 300 299 296 292 291 291 291 291 289 287 283 279 277 277 278 272 272 271 268 261 260 259 259 256 256 256 257 258 257 251 240 244 243 248
309 311 310 304 302 306 306 306 303 300 298 298 297 294 290 293 294 291 287 285 282 280 277 276 275 274 268 265 268 261 257 253 252 254 254 254 254 255 256 252 254 248 246 248
306 311 311 314 311 312 309 308 306 304 302 301 304 305 304 299 299 295 294 288 289 286 280 272 271 271 270 266 267 263 258 252 252 252 252 252 253 253 253 249 247 248 251 251
322 318 311 312 313 316 315 315 313 311 311 308 307 307 308 303 303 296 296 298 296 289 280 268 268 272 272 270 264 262 256 256 252 252 249 249 250 252 250 246 245 246 244 251
318 319 319 319 317 320 321 318 314 310 311 311 313 315 313 307 308 311 307 308 297 289 286 275 259 278 282 279 264 255 251 254 256 256 255 248 247 247 244 244 245 245 244 248
322 324 324 323 324 323 323 319 319 320 320 322 321 319 314 312 312 310 317 311 303 296 287 281 271 275 272 265 253 249 254 257 260 258 256 254 251 249 247 245 243 244 244 245
320 316 322 324 326 324 327 330 335 335 333 330 328 327 325 330 332 328 320 317 314 307 300 291 289 282 270 263 258 257 261 262 266 259 254 259 257 253 251 246 240 241 241 240
334 332 333 332 328 326 331 336 340 342 346 343 342 345 344 342 338 336 337 331 327 321 323 315 299 288 281 277 272 266 261 260 260 256 258 263 262 257 253 241 234 236 235 237
340 344 341 336 339 340 342 345 347 353 357 353 352 353 356 1 355 344 342 348 0 331 320 319 312 307 297 292 286 273 265 263 267 267 260 263 259 260 247 231 226 232 232 238
350 350 344 345 345 349 351 352 1 1 359 3 4 7 8 1 6 4 357 353 350 336 333 325 321 319 311 305 285 266 263 262 261 263 264 263 264 243 237 233 230 234 233 241
358 356 353 355 358 7 16 13 7 10 7 7 9 20 22 14 19 25 21 9 357 349 354 349 336 318 312 299 288 286 274 248 249 255 261 262 269 248 240 240 240 242 241 243
7 3 13 15 17 26 32 31 37 37 31 30 33 41 48 40 40 37 28 21 29 32 28 14 1 350 352 341 265 271 292 266 244 257 258 262 269 242 231 234 236 238 243 245
12 15 20 26 35 35 42 44 46 48 48 51 50 46 44 46 49 46 44 43 39 40 41 31 28 32 46 66 79 80 92 124 226 253 265 249 225 211 211 226 232 246 256 252
26 23 23 28 24 26 26 28 32 43 46 37 49 50 42 42 42 40 41 41 41 42 40 43 46 51 53 53 64 57 47 65 118 165 165 183 183 176 184 193 179 146 100 17
39 34 31 29 32 29 30 34 37 34 36 34 34 36 36 32 34 32 32 33 33 36 37 39 43 49 52 57 58 63 63 57 61 62 78 86 78 94 116 126 131 126 98 37
43 59 47 46 42 44 49 47 46 38 38 37 35 32 31 31 31 33 33 33 33 34 33 35 44 48 50 54 54 53 57 60 61 63 69 73 72 69 74 77 75 74 82 94
Wind_Speed_850mb
8 11 11 17 19 21 27 29 27 29 28 23 20 18 22 18 10 3 4 12 12 10 8 11 10 11 14 19 22 26 10 3 6 10 17 22 24 30 41 43 33 34 32 34
23 12 18 25 26 27 29 28 29 27 28 12 5 7 9 7 7 1 5 6 8 8 9 8 9 10 12 16 19 16 14 10 9 12 12 14 26 40 40 26 41 43 37 38
27 8 17 25 27 29 29 24 22 25 9 7 2 4 5 5 5 5 4 4 6 9 12 14 17 19 19 18 18 18 14 12 11 11 13 17 18 21 24 32 38 46 45 43
22 15 31 7 10 10 15 14 11 15 5 5 5 7 9 9 10 15 17 17 16 18 22 24 26 27 28 27 26 28 28 23 19 18 18 20 23 25 25 19 31 40 45 46
14 22 22 16 7 5 8 11 4 10 3 1 6 13 26 20 19 22 24 26 31 34 34 36 37 36 35 37 39 35 35 34 35 32 27 25 27 27 33 33 28 27 40 47
9 17 17 16 11 6 5 17 10 6 5 11 15 17 5 5 14 28 36 43 51 53 54 53 51 49 48 49 47 48 52 54 45 52 46 39 34 35 38 40 38 32 34 44
16 16 1 9 4 3 16 8 7 9 13 19 21 29 41 48 47 48 50 53 55 55 56 56 53 53 58 56 56 54 52 51 54 48 44 39 41 38 40 41 41 44 43 42
7 12 24 8 7 13 12 11 16 22 29 34 38 45 49 50 54 57 59 59 59 60 60 59 58 57 61 60 57 56 53 50 51 51 47 46 43 40 40 40 40 42 44 44
7 10 5 4 5 7 13 19 26 30 36 41 47 53 57 59 62 64 64 65 63 62 64 58 55 56 59 59 52 53 57 58 55 51 48 44 43 42 44 44 43 44 42 43
6 10 7 9 17 20 21 26 32 39 46 50 55 60 63 63 64 66 66 66 64 63 60 57 55 55 57 54 50 50 52 52 52 52 49 45 45 47 49 51 51 48 44 44
14 18 15 21 20 24 29 37 46 49 52 56 61 63 64 67 68 69 68 66 62 61 62 63 59 54 53 52 48 47 48 47 48 51 52 51 50 50 52 54 55 51 47 42
12 21 17 26 31 37 42 48 49 54 61 63 63 66 66 68 69 72 72 69 67 67 64 61 60 58 55 51 49 48 48 48 46 49 52 52 50 52 54 60 63 64 63 61
14 21 28 37 38 37 44 54 58 59 61 65 64 65 68 72 72 75 77 74 71 71 70 63 59 59 55 49 52 49 50 48 50 51 51 52 52 52 54 52 56 63 66 66
15 24 34 34 46 49 51 53 57 61 63 63 63 63 62 58 66 69 78 73 73 69 74 66 63 61 49 47 52 53 48 50 51 53 54 54 54 54 54 53 51 51 55 64
22 30 37 43 46 50 53 58 61 62 61 60 57 60 66 63 67 77 74 71 80 63 64 58 59 61 46 47 50 49 47 45 44 46 45 48 52 53 54 55 53 51 51 55
33 38 37 41 48 51 55 59 58 58 61 65 68 68 67 66 68 64 61 63 61 57 55 57 47 47 44 44 46 41 42 45 47 43 43 41 43 47 53 54 55 53 51 49
36 40 44 46 48 50 55 54 60 65 65 66 66 66 65 65 64 62 61 53 49 44 43 41 45 41 44 36 35 38 38 37 39 39 39 41 44 46 51 53 57 53 53 49
28 30 35 39 43 49 54 52 59 62 62 60 58 54 54 56 60 48 37 26 27 29 31 36 37 32 32 34 37 36 38 37 40 40 40 39 44 47 49 54 55 54 51 48
24 29 32 36 38 40 44 49 54 52 50 47 48 52 48 48 38 34 32 30 30 31 28 27 29 32 36 38 37 39 41 44 43 41 44 43 44 41 44 52 54 51 47 46
25 27 33 37 37 37 43 46 48 50 51 49 51 51 47 46 39 38 34 31 25 31 38 38 41 39 38 41 41 45 44 44 46 46 44 42 42 43 34 41 46 46 43 45
23 29 32 35 38 41 39 42 46 50 50 48 51 49 43 43 37 36 38 41 35 41 47 40 40 45 46 46 48 48 49 49 48 47 47 49 43 40 35 35 39 44 46 45
22 27 31 36 37 38 40 42 43 45 50 48 46 43 44 50 49 46 42 39 39 41 39 43 42 49 54 60 54 50 41 52 49 49 45 45 41 41 38 40 44 45 41 43
18 22 27 36 36 39 42 45 47 48 49 50 51 50 50 47 56 63 61 49 42 44 50 56 52 45 38 26 32 31 31 25 34 33 30 29 28 31 37 35 32 32 35 36
16 17 19 26 31 40 51 51 49 51 51 50 52 54 57 59 64 63 64 69 64 58 60 64 70 70 57 62 41 20 11 8 4 8 9 12 8 14 19 20 22 25 29 26
13 15 20 24 29 30 32 37 43 47 50 51 54 54 55 54 59 60 62 67 71 77 78 78 83 94 94 81 64 51 34 18 10 15 15 12 13 11 9 10 12 18 8 8
13 15 17 23 25 26 28 29 35 38 39 43 47 50 48 50 50 52 58 65 69 74 72 80 84 87 90 90 83 83 76 65 53 37 30 33 25 17 21 22 20 11 9 17
15 16 17 21 24 26 28 31 35 40 35 36 40 43 44 46 49 51 55 56 57 58 61 64 81 79 77 80 84 86 84 84 85 81 83 81 81 68 51 54 51 35 22 14
Wind_Direction_850mb
296 308 283 283 270 245 257 272 281 305 309 309 336 328 311 305 297 291 55 70 81 76 64 50 30 21 22 25 18 26 56 180 284 288 282 274 253 243 226 227 240 245 243 242
277 249 268 274 268 260 263 267 280 280 283 57 19 319 327 334 299 268 85 65 59 54 42 29 11 7 360 358 10 18 25 25 18 2 358 290 277 261 233 223 233 241 248 243
274 300 281 267 263 259 272 272 287 275 2 84 176 292 325 325 318 306 317 340 328 322 319 313 311 310 313 318 318 325 330 326 324 326 330 336 332 309 297 261 247 243 245 242
269 257 256 9 3 302 280 289 270 267 322 347 326 290 278 280 285 297 301 305 310 307 302 297 295 295 300 300 304 299 299 302 302 299 299 305 315 320 326 301 264 254 245 242
252 246 257 221 161 297 272 259 228 279 217 263 303 298 266 250 276 287 289 289 300 300 298 294 292 291 289 289 290 290 291 292 293 297 296 293 295 297 303 305 305 282 256 252
193 267 273 68 100 345 299 259 66 308 291 311 314 283 59 9 304 293 286 284 288 290 290 287 285 284 280 278 277 276 279 282 280 287 287 288 283 285 289 290 292 284 288 258
226 258 253 76 53 262 242 39 5 336 320 306 296 300 298 298 294 290 287 286 285 284 283 283 283 281 278 275 272 271 270 270 272 272 272 272 276 268 276 273 270 275 279 280
256 275 257 61 182 289 7 321 321 310 303 298 296 297 296 294 292 292 290 289 285 284 283 280 278 277 275 275 277 273 270 266 263 265 264 266 262 260 260 260 263 267 271 273
311 26 56 356 357 326 318 310 309 305 301 298 296 294 295 295 293 292 290 289 286 284 285 281 277 275 273 272 275 274 271 269 264 259 257 257 257 256 257 257 257 259 259 262
313 107 340 319 297 295 288 297 302 300 298 297 294 294 293 295 296 294 292 290 286 285 282 280 278 274 270 272 275 274 269 267 263 256 253 254 257 257 255 252 251 252 254 257
271 267 307 294 309 300 288 295 300 300 298 297 296 294 293 294 294 293 290 289 285 281 280 281 280 276 270 271 273 269 265 264 264 258 256 257 256 253 250 249 246 247 249 253
329 344 315 300 309 307 302 299 300 301 300 299 296 292 291 291 291 291 289 287 283 279 277 277 278 272 272 271 268 261 260 259 259 256 256 256 257 258 257 251 240 244 243 248
309 311 310 304 302 306 306 306 303 300 298 298 297 294 290 293 294 291 287 285 282 280 277 276 275 274 268 265 268 261 257 253 252 254 254 254 254 255 256 252 254 248 246 248
306 311 311 314 311 312 309 308 306 304 302 301 304 305 304 299 299 295 294 288 289 286 280 272 271 271 270 266 267 263 258 252 252 252 252 252 253 253 253 249 247 248 251 251
322 318 311 312 313 316 315 315 313 311 311 308 307 307 308 303 303 296 296 298 296 289 280 268 268 272 272 270 264 262 256 256 252 252 249 249 250 252 250 246 245 246 244 251
318 319 319 319 317 320 321 318 314 310 311 311 313 315 313 307 308 311 307 308 297 289 286 275 259 278 282 279 264 255 251 254 256 256 255 248 247 247 244 244 245 245 244 248
322 324 324 323 324 323 323 319 319 320 320 322 321 319 314 312 312 310 317 311 303 296 287 281 271 275 272 265 253 249 254 257 260 258 256 254 251 249 247 245 243 244 244 245
320 316 322 324 326 324 327 330 335 335 333 330 328 327 325 330 332 328 320 317 314 307 300 291 289 282 270 263 258 257 261 262 266 259 254 259 257 253 251 246 240 241 241 240
334 332 333 332 328 326 331 336 340 342 346 343 342 345 344 342 338 336 337 331 327 321 323 315 299 288 281 277 272 266 261 260 260 256 258 263 262 257 253 241 234 236 235 237
340 344 341 336 339 340 342 345 347 353 357 353 352 353 356 1 355 344 342 348 0 331 320 319 312 307 297 292 286 273 265 263 267 267 260 263 259 260 247 231 226 232 232 238
350 350 344 345 345 349 351 352 1 1 359 3 4 7 8 1 6 4 357 353 350 336 333 325 321 319 311 305 285 266 263 262 261 263 264 263 264 243 237 233 230 234 233 241
358 356 353 355 358 7 16 13 7 10 7 7 9 20 22 14 19 25 21 9 357 349 354 349 336 318 312 299 288 286 274 248 249 255 261 262 269 248 240 240 240 242 241 243
7 3 13 15 17 26 32 31 37 37 31 30 33 41 48 40 40 37 28 21 29 32 28 14 1 350 352 341 265 271 292 266 244 257 258 262 269 242 231 234 236 238 243 245
12 15 20 26 35 35 42 44 46 48 48 51 50 46 44 46 49 46 44 43 39 40 41 31 28 32 46 66 79 80 92 124 226 253 265 249 225 211 211 226 232 246 256 252
26 23 23 28 24 26 26 28 32 43 46 37 49 50 42 42 42 40 41 41 41 42 40 43 46 51 53 53 64 57 47 65 118 165 165 183 183 176 184 193 179 146 100 17
39 34 31 29 32 29 30 34 37 34 36 34 34 36 36 32 34 32 32 33 33 36 37 39 43 49 52 57 58 63 63 57 61 62 78 86 78 94 116 126 131 126 98 37
43 59 47 46 42 44 49 47 46 38 38 37 35 32 31 31 31 33 33 33 33 34 33 35 44 48 50 54 54 53 57 60 61 63 69 73 72 69 74 77 75 74 82 94